STARLINK-32652, 62234

Orbit data source: Space-Track

STARLINK-32652, 62234 is a payload satellite owned by SpaceX/Seattle (US) in LEO that was launched on Thu, 05 Dec 2024 UTC via an FALCON 9 launch vehicle from the Air Force Western Test Range (AFWTR). Payload-class satellites include a variety of spacecraft equipped with specific instruments for various scientific and technological missions. These include communications satellites like Starlink; space stations such as the ISS; scientific satellites like the Hubble; Earth observation satellites from companies like Planet Labs, Umbra, and HawkEye 360; GPS; miniature CubeSats for education and research; and military/defense satellites.

Loading next visibility...
Identifier
62234, 2024-231S
Orbit
LEO
Country
Flag of USUS
Related business
Manufacturer
SpaceX/Seattle
Mission
Operational Commercial Communications
Bus & Motor
STARLINK V2M, Unknown motor
Mass
730 kg wet, ~700 kg dry
Launch date (UTC)
2024-12-05 (11 months ago)
Launch vehicle
FALCON 9
Launch site
Air Force Western Test Range (AFWTR)
Object type
Payload
Rocket body
Debris
Shape & HBR
Box + 2 Pan, 17.7 m
Radar Cross Section
33.884 m², Large (>1 m²)

Expand to show TLE details & history
Last TLE update: 1 day ago

TLE from 1 day ago
0 STARLINK-32652
1 62234U 24231S   25310.60549258  .00040749  00000-0  13816-2 0  9994
2 62234  53.1654  71.3427 0000702   0.2107 359.8894 15.30173007 52916
Epoch: 2025-11-06T14:31Z
TLE epoch observation values (Epoch: 2025-11-06T14:31:54.558Z)
Latitude
-0.00004°
Longitude
167.30393°
Altitude
475.715 km
Speed
7.629 km/s
True Right ascension
04h 45m 22s
True Declination
0° 00' 00"
Sunlit
Object was in full shadow at epoch
Visualization orbit readout
Latitude
Unknown
Longitude
Unknown
Altitude
Unknown
Speed
Unknown
Apparent Right ascension
Unknown
Apparent Declination
Unknown
Sunlit
N/A
Visualization observer readout
Local Sidereal Time
10:31:35
Azimuth
Unknown
Elevation
Unknown
Doppler factor
Unknown
Orbital elements
Apogee altitude
476.032 km
Perigee altitude
475.07 km
Semi-major axis
6,853.688 km
Eccentricity
0.00007
Inclination
53.1654°
RAAN
71.3427°
Arg. of periapsis
0.2107°
True anomaly
359.88938°
Mean anomaly
359.8894°
Eccentric anomaly
359.88939°
Mean motion
3.82522 °/min
Orbital period
94.11 mins
BSTAR
0.0013816
Loading maneuver chart data...
Computing Atmospheric mass density...
Loading historical data...
Loading historical data...
Loading historical data...
Loading historical data...
Loading historical data...
Loading historical data...
Loading historical data...

Documentation

Showing up to 5 results
|